Location: Unspecified
(0.0000°N, 0.0000°E)
Time: 18:57:45
(UTC+00:00)

Explorer 11/Cluster Stage 4 - Pass Details

Date: 20 November 2019
Orbit: 467 x 1259 km, 28.8° (Epoch: 09 December)

Event Time Altitude Azimuth Distance (km) Brightness Sun altitude
Rises 01:16:57 0° 319° (NW) 4,068 - -60.2°
Reaches altitude 10° 01:20:10 10° 330° (NNW) 3,169 - -59.6°
Maximum altitude 01:27:05 30° 28° (NNE) 2,068 - -58.3°
Drops below altitude 10° 01:33:59 10° 86° (E) 3,174 - -57.0°
Exits shadow 01:35:12 - 90° (E) 3,504 10.2 -56.7°
Sets 01:37:12 0° 96° (E) 4,076 10.7 -56.3°
